Weather History for Billings, MT

Change the Weather History Date:

Saturday, January 12, 2013

  Actual Average Record
Temperature  
Mean Temperature 9 °F 27 °F  
Max Temperature 13 °F 36 °F 64 °F (1953)
Min Temperature 4 °F 18 °F -30 °F (1997)
Degree Days  
Heating Degree Days 56 38  
Month to date heating degree days 436 463  
Since 1 July heating degree days 2977 3284  
Cooling Degree Days 0 0  
Month to date cooling degree days 0 0  
Year to date cooling degree days 0 0  
Moisture  
Dew Point 3 °F    
Average Humidity 79    
Maximum Humidity 91    
Minimum Humidity 67    
Precipitation  
Precipitation 0.02 in 0.02 in 0.22 in (1969)
Month to date precipitation 0.39 0.19  
Year to date precipitation 0.39 0.19  
Snow  
Snow 0.20 in 0.30 in 3.60 in (1969)
Month to date snowfall 7.4 3.4  
Since 1 July snowfall 23.7 23.3  
Snow Depth 7.00 in    
Sea Level Pressure  
Sea Level Pressure 30.26 in    
Wind  
Wind Speed 12 mph (SW)    
Max Wind Speed 21 mph    
Max Gust Speed 24 mph    
Visibility 8 miles    
Events Snow    
T = Trace of Precipitation, MM = Missing Value Source: NWS Daily Summary

Daily Weather History Graph

Daily Weather History Graph

Search for Another Location

Airport:

Trip Planner

Search our weather history database for the weather conditions in past years. The results will help you decide how hot, cold, wet, or windy it might be!

Date:

Astronomy

Jan. 12, 2013 Rise Set
Actual Time 7:52 AM MST 4:52 PM MST
Civil Twilight 7:19 AM MST 5:26 PM MST
Nautical Twilight 6:42 AM MST 6:03 PM MST
Astronomical Twilight 6:06 AM MST 6:39 PM MST
Moon 8:08 AM MST (1/12) 6:32 PM MST (1/12)
Length of Visible Light 10h 07m
Length of Day
8h 59m
New Moon, 1% of the Moon is Illuminated
Jan 12
New Moon
Jan 18
First Quarter
Jan 26
Full
Feb 3
Last Quarter
Feb 10
New

Hourly Weather History & Observations

Time (MST) Temp. Windchill Dew Point Humidity Pressure Visibility Wind Dir Wind Speed Gust Speed Precip Events Conditions
12:53 AM 6.1 °F -2.8 °F 1.9 °F 83% 30.27 in 5.0 mi West 4.6 mph - 0.00 in Snow Light Snow
1:53 AM 7.0 °F -1.7 °F 3.0 °F 84% 30.28 in 9.0 mi SW 4.6 mph - 0.00 in Snow Light Snow
2:53 AM 6.1 °F -5.6 °F 1.9 °F 83% 30.29 in 9.0 mi SW 6.9 mph - 0.00 in Snow Light Snow
3:53 AM 6.1 °F -5.6 °F 3.0 °F 87% 30.27 in 3.0 mi SW 6.9 mph - 0.01 in Snow Light Snow
4:53 AM 6.8 °F -4.8 °F 3.2 °F 85% 30.05 in 4.0 mi SSW 6.9 mph - N/A Snow Light Snow
5:53 AM 5.0 °F -9.1 °F 1.9 °F 87% 30.26 in 9.0 mi SSW 9.2 mph - 0.00 in   Scattered Clouds
6:53 AM 5.0 °F -10.0 °F 1.9 °F 87% 30.25 in 10.0 mi SSW 10.4 mph - N/A   Partly Cloudy
7:53 AM 3.9 °F -12.2 °F 1.0 °F 88% 30.27 in 10.0 mi SW 11.5 mph - N/A   Scattered Clouds
8:53 AM 3.9 °F -12.2 °F 1.0 °F 88% 30.27 in 10.0 mi SW 11.5 mph - N/A   Scattered Clouds
9:53 AM 5.0 °F -12.3 °F 1.4 °F 85% 30.06 in 10.0 mi SW 13.8 mph - N/A   Scattered Clouds
10:53 AM 7.0 °F -9.8 °F 1.9 °F 80% 30.28 in 10.0 mi SW 13.8 mph - N/A   Mostly Cloudy
11:53 AM 9.0 °F -4.2 °F 1.9 °F 73% 30.26 in 10.0 mi SW 9.2 mph - N/A   Scattered Clouds
12:53 PM 12.0 °F -4.0 °F 3.9 °F 70% 30.24 in 10.0 mi WSW 15.0 mph - N/A   Scattered Clouds
1:53 PM 12.9 °F -2.2 °F 5.0 °F 71% 30.24 in 10.0 mi SW 13.8 mph - N/A   Scattered Clouds
2:53 PM 12.9 °F -2.2 °F 5.0 °F 71% 30.25 in 10.0 mi WSW 13.8 mph - N/A   Scattered Clouds
3:53 PM 12.9 °F -2.2 °F 3.9 °F 67% 30.26 in 10.0 mi SW 13.8 mph - N/A   Mostly Cloudy
4:53 PM 12.0 °F -4.5 °F 3.9 °F 70% 30.26 in 10.0 mi WSW 16.1 mph - N/A   Scattered Clouds
5:53 PM 10.9 °F -5.4 °F 6.1 °F 81% 30.28 in 3.0 mi WSW 15.0 mph - 0.00 in Snow Light Snow
6:53 PM 10.0 °F -5.9 °F 6.1 °F 84% 30.28 in 8.0 mi SW 13.8 mph - 0.00 in Snow Light Snow
7:53 PM 10.0 °F -5.2 °F 7.0 °F 87% 30.30 in 3.0 mi SW 12.7 mph - 0.00 in Snow Light Snow
8:53 PM 9.0 °F -7.9 °F 6.1 °F 88% 30.29 in 10.0 mi WSW 15.0 mph - 0.00 in   Partly Cloudy
9:53 PM 8.1 °F -8.4 °F 3.9 °F 83% 30.29 in 10.0 mi WSW 13.8 mph - N/A   Scattered Clouds
10:53 PM 9.0 °F -7.9 °F 3.9 °F 80% 30.29 in 10.0 mi West 15.0 mph - N/A   Mostly Cloudy
11:53 PM 9.0 °F -5.1 °F 1.0 °F 70% 30.29 in 10.0 mi WSW 10.4 mph - N/A   Mostly Cloudy